Regional Weather Roundup
Issued by NWS

Home | Current Version | Previous Version | Graphics & Text | Print | Product List | Glossary Off
Versions: 1 2 3 4 5 6 7 8 9 10 11 12 13 14 15 16 17 18 19 20 21 22 23 24 25 26 27 28 29 30 31 32 33 34 35 36 37 38 39 40 41 42 43 44 45 46 47 48 49 50

000
ASUS43 KDMX 222001
RWRIA

WEATHER ROUNDUP FOR IOWA
NATIONAL WEATHER SERVICE DES MOINES IA
200 PM CST SUN JAN 22 2017

NOTE: "FAIR" INDICATES FEW OR NO CLOUDS BELOW 12,000 FEET WITH NO
SIGNIFICANT WEATHER AND/OR OBSTRUCTIONS TO VISIBILITY.

* - THESE STATIONS ARE NOT NWS STATIONS...THUS NOT UNDER NWS
QUALITY CONTROL.  THEY ALSO DO NOT REPORT WEATHER SUCH
AS PRECIPITATION OR FOG.

IAZ001>003-012>014-020>022-031>034-043>046-222100-
   NORTHWEST IOWA

CITY           SKY/WX    TMP DP  RH WIND       PRES   REMARKS
CARROLL *      CLOUDY    37  37 100 NW14      29.74S WCI  29
CHEROKEE *     CLOUDY    36  35  96 NW7       29.77S WCI  30
DENISON *      CLOUDY    36  34  93 NW12      29.75S WCI  27
LE MARS *      CLOUDY    34  32  93 W12       29.81S FOG     WCI  25
ORANGE CITY *  CLOUDY    34  34 100 NW14      29.78S FOG     WCI  24
SHELDON *      CLOUDY    36  36 100 NW13      29.76S FOG     WCI  27
SIOUX CITY     CLOUDY    36  32  85 NW16      29.80S WCI  26
SPENCER          N/A    N/A N/A N/A MISG      29.75F
STORM LAKE *   CLOUDY    36  34  93 NW13      29.75S FOG     WCI  27
$$

IAZ055>058-069>071-079>083-090>094-222100-
   SOUTHWEST IOWA

CITY           SKY/WX    TMP DP  RH WIND       PRES   REMARKS
ATLANTIC *     FOG       37  36  93 NW12      29.76S VSB 1   WCI  30
AUDUBON *      CLOUDY    37  36  93 NW10      29.76R WCI  30
CLARINDA *     CLOUDY    36  36 100 N12       29.78S WCI  27
COUNCIL BLFS * CLOUDY    36  36 100 NW12G18   29.78S WCI  27
CRESTON *      CLOUDY    36  36 100 NW12G20   29.74S FOG     WCI  27
HARLAN  *      CLOUDY    36  36 100 NW14      29.80R WCI  27
LAMONI         CLOUDY    38  35  89 NW12      29.70F WCI  30
RED OAK *      CLOUDY    37  34  87 NW10G17   29.78R WCI  30
SHENANDOAH *   CLOUDY    37  34  87 N13       29.79S WCI  29
$$

IAZ047>049-059>061-072>074-084-222100-
   CENTRAL IOWA

CITY           SKY/WX    TMP DP  RH WIND       PRES   REMARKS
AMES           CLOUDY    37  36  96 NW8       29.72S WCI  31
ANKENY *       CLOUDY    37  36  93 NW12      29.73S WCI  30
BOONE *        CLOUDY    36  36 100 NW9       29.71S FOG     WCI  29
CHARITON *     CLOUDY    36  36 100 NW9       29.70S FOG     WCI  29
DES MOINES     CLOUDY    38  35  89 NW8       29.72S FOG     WCI  32
GRINNELL*      CLOUDY    37  36  99 NW12      29.70R WCI  29
KNOXVILLE *    CLOUDY    37  36  93 NW12      29.69S FOG     WCI  30
MARSHALLTOWN   CLOUDY    38  36  92 NW10      29.69S WCI  31
NEWTON *       CLOUDY    37  36  93 NW9       29.70S WCI  31
PELLA *        CLOUDY    37  35  92 NW12      29.71S FOG     WCI  29
PERRY *        CLOUDY    36  35  96 NW9       29.74R FOG     WCI  29
$$

IAZ004>006-015-016-023>025-035-036-222100-
   NORTH CENTRAL IOWA

CITY           SKY/WX    TMP DP  RH WIND       PRES   REMARKS
ALGONA *       CLOUDY    37  37 100 NW12      29.73S WCI  30
CLARION *      CLOUDY    37  37 100 N13       29.72S WCI  29
ESTHERVILLE    CLOUDY    35  35 100 NW13      29.74S FOG     WCI  26
FORT DODGE *   CLOUDY    36  34  93 NW7       29.74S WCI  30
MASON CITY     CLOUDY    35  34  96 NW12      29.72R FOG     WCI  27
FOREST CITY *  CLOUDY    36  36 100 NW8       29.72R FOG     WCI  29
WEBSTER CITY * CLOUDY    37 N/A N/A NW15      29.70S FOG     WCI  28
IOWA FALLS *   CLOUDY    38  37  96 NW12      29.71S FOG     WCI  30
$$

IAZ007>011-017>019-026>030-037>042-050>054-066-222100-
   NORTHEAST IOWA

CITY           SKY/WX    TMP DP  RH WIND       PRES   REMARKS
CEDAR RAPIDS   CLOUDY    35  32  88 NW8       29.66S WCI  29
CHARLES CITY * CLOUDY    36  36 100 NW6       29.70R FOG     WCI  31
CLINTON *      PTSUNNY   43  38  82 N6        29.66S
DECORAH *      CLOUDY    36  36 100 NW3       29.66S FOG
DUBUQUE        CLOUDY    41  36  82 N8        29.64F
MONTICELLO *   CLOUDY    39  39 100 W5        29.66S FOG
OELWEIN *      CLOUDY    36  36 100 NW8       29.68S FOG     WCI  29
WATERLOO       CLOUDY    38  35  89 NW9       29.69R WCI  31
$$

IAZ064-065-067-068-078-222100-
   EAST CENTRAL IOWA

CITY           SKY/WX    TMP DP  RH WIND       PRES   REMARKS
DAVENPORT      CLOUDY    41  37  86 N8        29.66S
IOWA CITY      CLOUDY    37  33  85 NW9       29.69S WCI  30
MUSCATINE *    CLOUDY    39  36  87 NW10      29.68R FOG     WCI  32
QUAD CITIES    CLOUDY    42  34  73 N3        29.64F
$$

IAZ062-063-075>077-085>089-095>099-222100-
   SOUTHEAST IOWA

CITY           SKY/WX    TMP DP  RH WIND       PRES   REMARKS
BURLINGTON     CLOUDY    38  37  97 NW15      29.64S FOG     WCI  29
FAIRFIELD *    CLOUDY    36  34  93 NW13      29.68R WCI  27
FORT MADISON * CLOUDY    37  37 100 NW15      29.65F FOG     WCI  28
KEOKUK *       CLOUDY    37 N/A N/A NW14      29.64S FOG     WCI  29
OSKALOOSA *    CLOUDY    36  34  94 NW13G20   29.68F FOG     WCI  27
CENTERVILLE *  CLOUDY    37  37 100 NW12      29.69S WCI  30
OTTUMWA        CLOUDY    38  33  82 NW16      29.67S WCI  29
WASHINGTON *   CLOUDY    37  36  93 NW14      29.69R WCI  29
$$

ABBREVIATIONS USED IN REMARKS
   TC - TEMPERATURES IN CELSIUS
  WCI - WIND CHILL INDEX
   HX - HEAT INDEX
  VSB - VISIBILITY
$$





USA.gov is the U.S. government's official web portal to all federal, state and local government web resources and services.